GW4940 Weather Reports


time (UTC)temp
C
wind
direction
speed
KPH
gust
KPH
rain 1hr
cm
rain 24hr
cm
rain mn
cm
humidity
%
barometer
mb
20260504050311 7 241 0.0 0.0 0.00 0.00 0.00 85 1016.3
20260504045808 7 241 0.0 0.0 0.00 0.00 0.00 86 1016.2
20260504045308 7 241 0.0 0.0 0.00 0.00 0.00 85 1016.1
20260504044806 7 241 0.0 0.0 0.00 0.00 0.00 85 1016.3
20260504044303 7 241 0.0 0.0 0.00 0.00 0.00 85 1016.3
20260504043800 7 241 0.0 0.0 0.00 0.00 0.00 85 1016.2
20260504043257 7 241 0.0 0.0 0.00 0.00 0.00 86 1016.2
20260504042755 7 241 0.0 0.0 0.00 0.00 0.00 85 1016.1
20260504042251 7 241 0.0 0.0 0.00 0.00 0.00 86 1016.2
20260504041747 7 241 0.0 0.0 0.00 0.00 0.00 87 1016.1
20260504041243 7 241 0.0 0.0 0.00 0.00 0.00 87 1016.1
20260504040739 7 241 0.0 0.0 0.00 0.00 0.00 86 1016.4
20260504040238 7 241 0.0 0.0 0.00 0.00 0.00 83 1016.3
20260504035733 8 241 0.0 0.0 0.00 0.00 0.00 82 1016.4
20260504035231 8 241 0.0 0.0 0.00 0.00 0.00 83 1016.3
20260504034728 8 241 0.0 0.0 0.00 0.00 0.00 82 1016.4
20260504034225 8 241 0.0 0.0 0.00 0.00 0.00 80 1016.3
20260504033723 8 241 0.0 0.0 0.00 0.00 0.00 80 1016.4
20260504033220 8 241 0.0 0.0 0.00 0.00 0.00 81 1016.4
20260504032717 8 241 0.0 0.0 0.00 0.00 0.00 80 1016.3
20260504032214 8 241 0.0 0.0 0.00 0.00 0.00 81 1016.3
20260504031711 8 241 0.0 0.0 0.00 0.00 0.00 79 1016.4
20260504031208 8 241 0.0 0.0 0.00 0.00 0.00 81 1016.4
20260504030704 8 241 0.0 0.0 0.00 0.00 0.00 80 1016.5
20260504030201 8 241 0.0 0.0 0.00 0.00 0.00 78 1016.4
20260504025658 8 240 0.0 0.0 0.00 0.00 0.00 80 1016.3
20260504025154 8 240 0.0 0.0 0.00 0.00 0.00 82 1016.3
20260504024652 8 240 0.0 0.0 0.00 0.00 0.00 80 1016.3
20260504024148 8 240 0.0 0.0 0.00 0.00 0.00 81 1016.4
20260504023645 8 240 0.0 0.0 0.00 0.00 0.00 81 1016.3
20260504023141 8 240 0.0 0.0 0.00 0.00 0.00 81 1016.4
20260504022637 8 240 0.0 0.0 0.00 0.00 0.00 82 1016.4
20260504022133 8 240 0.0 0.0 0.00 0.00 0.00 81 1016.6
20260504021631 8 240 0.0 0.0 0.00 0.00 0.00 81 1016.4
20260504021127 8 240 0.0 0.0 0.00 0.00 0.00 80 1016.3
20260504020625 8 240 0.0 0.0 0.00 0.00 0.00 82 1016.3
20260504020121 8 240 0.0 0.0 0.00 0.00 0.00 82 1016.3
20260504015617 8 240 0.0 0.0 0.00 0.00 0.00 81 1016.3
20260504015114 8 240 0.0 0.0 0.00 0.00 0.00 82 1016.4
20260504014610 8 240 0.0 0.0 0.00 0.00 0.00 80 1016.2
20260504014107 9 240 0.0 0.0 0.00 0.00 0.00 78 1016.3
20260504013604 9 240 0.0 0.0 0.00 0.00 0.00 76 1016.3
20260504013101 9 240 0.0 0.0 0.00 0.00 0.00 76 1016.1
20260504012558 9 240 0.0 0.0 0.00 0.00 0.00 76 1016.3
20260504012056 9 254 0.0 0.0 0.00 0.00 0.00 75 1016.4
20260504011553 9 254 0.0 0.0 0.00 0.00 0.00 74 1016.1
20260504011049 9 254 0.0 0.0 0.00 0.00 0.00 75 1016.4
20260504010545 9 254 0.0 0.0 0.00 0.00 0.00 73 1016.3
20260504010041 9 254 0.0 0.0 0.00 0.00 0.00 73 1016.5
20260504005538 9 254 0.0 0.0 0.00 0.00 0.00 72 1016.4
20260504005035 10 255 0.0 0.0 0.00 0.00 0.00 75 1016.3
20260504004533 10 261 0.0 0.0 0.00 0.00 0.00 71 1016.2
20260504004030 10 261 0.0 0.0 0.00 0.00 0.00 71 1016.2
20260504003526 10 230 0.0 0.0 0.00 0.00 0.00 69 1016.1
20260504003023 10 267 0.0 0.0 0.00 0.00 0.00 69 1016.0
20260504002520 10 228 0.0 0.0 0.00 0.00 0.00 67 1015.8
20260504002017 10 291 0.0 0.0 0.00 0.00 0.00 62 1016.1
20260504001515 11 292 0.0 1.6 0.00 0.00 0.00 64 1016.0
20260504001011 11 292 0.0 0.0 0.00 0.00 0.00 61 1015.8
20260504000508 12 293 0.0 0.0 0.00 0.00 0.00 59 1015.8
20260504000005 12 298 0.0 1.6 0.00 0.00 0.00 51 1016.0
20260503235504 12 350 0.0 0.0 0.00 0.00 0.00 48 1016.1
20260503235000 12 312 0.0 1.6 0.00 0.00 0.00 47 1016.3
20260503234457 12 312 0.0 0.0 0.00 0.00 0.00 47 1016.1
20260503233956 12 313 0.0 1.6 0.00 0.00 0.00 48 1016.2
20260503233452 12 289 0.0 3.2 0.00 0.00 0.00 49 1016.0
20260503232948 12 320 0.0 0.0 0.00 0.00 0.00 49 1016.2
20260503232445 13 289 0.0 1.6 0.00 0.00 0.00 43 1016.1
20260503231943 13 7 0.0 0.0 0.00 0.00 0.00 40 1016.1
20260503231440 13 337 0.0 4.8 0.00 0.00 0.00 38 1016.2
20260503230937 13 324 1.6 1.6 0.00 0.00 0.00 39 1016.3
20260503230433 13 253 3.2 4.8 0.00 0.00 0.00 39 1016.1
20260503225931 14 59 3.2 9.7 0.00 0.00 0.00 36 1016.3
20260503225428 14 263 6.4 11.3 0.00 0.00 0.00 40 1016.4
20260503224923 14 17 0.0 1.6 0.00 0.00 0.00 36 1016.4
20260503224420 15 329 1.6 1.6 0.00 0.00 0.00 35 1016.3
20260503223918 15 309 3.2 6.4 0.00 0.00 0.00 38 1016.4
20260503223416 15 240 1.6 6.4 0.00 0.00 0.00 34 1016.4
20260503222916 15 294 1.6 4.8 0.00 0.00 0.00 36 1016.5
20260503222415 16 320 3.2 6.4 0.00 0.00 0.00 33 1016.5
20260503221913 16 269 1.6 4.8 0.00 0.00 0.00 34 1016.5
20260503221411 16 266 6.4 6.4 0.00 0.00 0.00 34 1016.4
20260503220907 15 317 4.8 11.3 0.00 0.00 0.00 34 1016.5
20260503220404 16 303 4.8 6.4 0.00 0.00 0.00 34 1016.5
20260503215901 16 260 1.6 4.8 0.00 0.00 0.00 34 1016.5
20260503215358 16 71 3.2 6.4 0.00 0.00 0.00 33 1016.3
20260503214855 16 158 1.6 11.3 0.00 0.00 0.00 36 1016.2
20260503214353 16 295 3.2 6.4 0.00 0.00 0.00 35 1016.3
20260503213850 16 302 8.0 11.3 0.00 0.00 0.00 34 1016.3
20260503213348 16 305 4.8 6.4 0.00 0.00 0.00 33 1016.4
20260503212844 16 263 1.6 9.7 0.00 0.00 0.00 38 1016.5
20260503212342 16 299 6.4 9.7 0.00 0.00 0.00 35 1016.4
20260503211839 16 308 4.8 6.4 0.00 0.00 0.00 37 1016.3
20260503211336 15 160 9.7 12.9 0.00 0.00 0.00 33 1016.3
20260503210831 15 248 3.2 9.7 0.00 0.00 0.00 33 1016.3
20260503210329 15 323 3.2 16.1 0.00 0.00 0.00 36 1016.4
20260503205823 16 329 4.8 9.7 0.00 0.00 0.00 32 1016.6
20260503205320 16 28 3.2 11.3 0.00 0.00 0.00 37 1016.6
20260503204817 16 97 0.0 9.7 0.00 0.00 0.00 34 1016.5
20260503204315 16 332 6.4 12.9 0.00 0.00 0.00 36 1016.6
20260503203812 16 106 1.6 9.7 0.00 0.00 0.00 34 1016.8
20260503203309 15 276 0.0 4.8 0.00 0.00 0.00 34 1016.8
20260503202806 16 74 9.7 11.3 0.00 0.00 0.00 32 1016.9
20260503202304 16 336 3.2 4.8 0.00 0.00 0.00 34 1016.9
20260503201801 15 297 4.8 11.3 0.00 0.00 0.00 38 1017.1
20260503201258 16 302 3.2 6.4 0.00 0.00 0.00 39 1017.0
20260503200756 15 259 6.4 11.3 0.00 0.00 0.00 34 1017.2
20260503200251 15 320 3.2 6.4 0.00 0.00 0.00 39 1017.3
20260503195749 15 133 1.6 9.7 0.00 0.00 0.00 35 1017.5
20260503195245 15 277 6.4 16.1 0.00 0.00 0.00 33 1017.5
20260503194743 15 271 1.6 11.3 0.00 0.00 0.00 40 1017.7
20260503194238 16 272 1.6 3.2 0.00 0.00 0.00 40 1017.7
20260503193735 16 304 4.8 6.4 0.00 0.00 0.00 36 1017.9
20260503193231 15 294 3.2 9.7 0.00 0.00 0.00 37 1017.9
20260503192727 16 159 9.7 12.9 0.00 0.00 0.00 34 1017.9
20260503192222 15 203 3.2 9.7 0.00 0.00 0.00 42 1017.9
20260503191719 15 286 1.6 6.4 0.00 0.00 0.00 38 1018.0
20260503191216 15 286 0.0 1.6 0.00 0.00 0.00 37 1018.3
20260503190713 15 132 6.4 12.9 0.00 0.00 0.00 36 1018.2
20260503190210 15 335 4.8 6.4 0.00 0.00 0.00 36 1018.3
20260503185707 15 114 0.0 3.2 0.00 0.00 0.00 38 1018.3
20260503185202 15 284 1.6 6.4 0.00 0.00 0.00 37 1018.4
20260503184657 15 314 3.2 6.4 0.00 0.00 0.00 37 1018.4
20260503184154 15 279 3.2 9.7 0.00 0.00 0.00 36 1018.6
20260503183650 14 325 4.8 6.4 0.00 0.00 0.00 40 1018.4
20260503183148 14 157 1.6 4.8 0.00 0.00 0.00 38 1018.5
20260503182645 14 121 3.2 11.3 0.00 0.00 0.00 37 1018.9
20260503182144 15 283 8.0 9.7 0.00 0.00 0.00 37 1018.6
20260503181640 15 98 4.8 9.7 0.00 0.00 0.00 34 1018.5
20260503181137 14 127 1.6 4.8 0.00 0.00 0.00 34 1018.6
20260503180634 14 257 8.0 11.3 0.00 0.00 0.00 41 1018.9
20260503180132 14 61 4.8 11.3 0.00 0.00 0.00 42 1018.8
20260503175629 14 76 4.8 9.7 0.00 0.00 0.00 39 1018.9
20260503175126 13 123 3.2 6.4 0.00 0.00 0.00 38 1018.9
20260503174622 13 286 3.2 6.4 0.00 0.00 0.00 36 1019.0
20260503174120 13 119 3.2 11.3 0.00 0.00 0.00 37 1019.1
20260503173614 13 102 0.0 4.8 0.00 0.00 0.00 38 1019.1
20260503173111 14 12 1.6 6.4 0.00 0.00 0.00 42 1019.4
20260503172608 13 265 6.4 6.4 0.00 0.00 0.00 39 1019.4
20260503172106 13 317 6.4 11.3 0.00 0.00 0.00 37 1019.5
20260503171602 13 294 3.2 9.7 0.00 0.00 0.00 43 1019.5
20260503171059 13 239 0.0 3.2 0.00 0.00 0.00 40 1019.5
20260503170555 13 56 0.0 4.8 0.00 0.00 0.00 34 1019.7
20260503150948 10 69 3.2 9.7 0.00 0.00 0.00 51 1020.8
20260503150445 10 261 3.2 9.7 0.00 0.00 0.00 50 1020.8
20260503131338 7 279 3.2 6.4 0.00 0.00 0.00 72 1020.9
20260503130835 7 340 0.0 3.2 0.00 0.00 0.00 70 1020.8
20260503130333 6 46 0.0 3.2 0.00 0.00 0.00 78 1020.8
20260503110726 -1 307 0.0 0.0 0.00 0.00 0.00 99 1020.1
20260503110224 -1 308 0.0 0.0 0.00 0.00 0.00 99 1020.1
20260503100150 -1 308 0.0 0.0 0.00 0.00 0.00 99 1019.3
20260503090109 -1 308 0.0 0.0 0.00 0.00 0.00 99 1019.0
20260503081544 -1 308 0.0 0.0 0.00 0.00 0.00 99 1019.3
20260503081042 -1 308 0.0 0.0 0.00 0.00 0.00 99 1018.9
20260503080537 -1 308 0.0 0.0 0.00 0.00 0.00 99 1018.8